Theta_e
309 313 312 314 316 341 342 343 344 343 343 343 340 340 339 338 337 333 328 327 334 331 332 333 331 323 325 326 326 326 327 329
308 309 310 310 311 322 341 342 342 343 341 339 337 337 337 336 337 333 329 326 335 334 333 332 333 328 328 327 328 327 328 328
311 312 312 311 309 312 323 340 339 340 340 339 337 337 336 335 334 333 330 330 331 335 335 332 333 329 328 329 328 329 328 328
310 310 310 312 314 315 315 318 338 340 339 339 337 337 335 335 334 335 332 334 329 337 336 334 333 330 330 330 328 329 328 328
309 309 309 310 311 313 315 317 320 341 340 337 338 337 338 336 335 335 335 335 335 332 337 336 333 332 330 331 328 328 327 328
308 308 307 309 309 310 312 314 317 322 341 338 339 339 338 337 338 336 337 336 336 334 336 336 334 333 332 331 328 328 328 327
307 306 306 306 307 309 310 312 315 319 322 339 338 340 339 340 338 339 338 338 336 336 335 335 335 334 334 332 330 328 328 328
305 304 305 305 306 307 309 313 315 319 322 323 338 338 340 339 341 340 340 339 338 337 336 335 335 335 334 334 331 329 328 328
304 304 304 304 305 306 308 310 312 314 315 320 324 339 338 340 340 341 341 341 339 338 337 336 336 334 334 334 332 330 329 328
304 304 303 303 304 305 307 308 309 310 312 316 323 324 339 339 341 340 341 340 341 340 338 337 337 336 334 333 333 332 330 329
305 304 303 303 303 304 306 306 306 307 309 312 317 326 326 340 340 341 339 340 341 341 339 338 337 337 335 334 333 333 331 330
305 304 303 303 303 303 305 304 305 306 308 310 314 324 327 325 337 337 341 341 341 342 341 340 339 338 337 334 334 333 333 332
305 304 303 303 302 302 304 304 304 305 306 308 312 316 323 324 324 326 328 339 341 342 342 342 340 340 339 337 335 335 333 333
305 304 304 303 303 302 302 304 303 303 304 306 308 311 315 320 324 325 320 324 337 339 342 343 342 341 341 339 338 337 336 334
303 303 303 303 303 303 303 303 302 302 302 303 305 307 311 313 316 322 326 326 334 339 341 342 342 342 342 342 340 339 337 337
303 302 303 304 303 303 302 300 303 301 301 301 302 304 306 309 311 314 319 324 333 337 339 341 342 342 342 342 342 342 340 338
302 302 302 304 304 304 299 300 301 300 300 300 299 301 303 305 307 311 312 317 322 330 338 340 341 341 341 342 343 343 342 340
301 301 300 301 304 303 299 299 299 299 298 298 299 299 301 303 304 307 308 310 313 316 324 330 340 340 340 340 342 343 342 342
303 300 300 302 304 300 298 298 299 298 297 297 298 298 299 302 302 304 305 307 310 311 315 318 326 337 330 339 341 342 342 342
Wind_Speed
23 17 21 16 8 30 42 46 44 44 42 38 35 38 42 43 43 42 40 42 39 37 35 32 29 32 32 31 29 27 24 22
23 21 22 20 15 5 34 40 44 42 38 37 35 38 42 42 46 45 42 46 41 42 41 36 35 36 35 34 32 30 30 26
28 32 34 33 26 11 6 28 33 42 40 40 38 43 47 50 46 46 44 45 48 45 44 43 40 40 37 38 38 33 32 30
20 25 30 30 31 31 22 20 30 38 41 39 31 29 25 26 32 46 50 50 53 49 47 45 44 43 41 42 42 39 33 31
18 26 29 29 31 30 29 25 20 34 34 34 41 37 33 37 44 43 45 53 52 55 52 49 48 45 45 42 47 44 38 33
19 26 27 27 30 30 30 27 20 17 39 38 39 40 41 39 38 39 43 50 55 55 55 54 52 50 48 46 48 48 44 34
20 29 29 26 32 33 32 29 26 19 20 39 40 40 37 35 36 35 36 43 51 55 55 52 55 55 52 52 50 51 49 42
17 20 30 36 34 34 36 34 33 31 25 21 36 46 38 39 41 40 38 38 41 45 53 53 50 57 53 53 53 53 53 50
15 22 26 29 30 31 33 33 31 31 32 27 21 37 47 38 42 40 40 39 45 51 53 48 48 48 49 53 51 52 51 52
12 21 25 28 29 28 30 29 28 30 35 31 27 22 38 43 39 45 42 44 39 43 47 51 49 48 48 50 48 50 46 54
9 16 21 24 28 28 26 30 28 30 35 33 30 28 20 37 44 37 41 39 39 38 41 45 46 47 48 47 46 45 44 45
12 17 16 23 26 29 29 29 30 30 33 35 31 30 22 26 25 30 38 44 42 39 44 46 47 45 47 45 45 43 43 44
9 15 18 21 25 29 29 30 30 32 32 30 30 29 14 18 26 43 28 36 46 45 40 45 47 46 46 46 46 44 44 44
6 8 11 15 17 21 27 29 31 32 32 32 30 28 24 19 27 30 31 43 46 46 44 44 47 49 46 49 50 48 45 46
8 7 7 12 14 15 22 26 29 31 31 30 29 30 27 24 23 21 19 43 43 38 48 45 47 49 50 49 48 45 43 43
12 11 8 13 16 18 21 26 25 28 28 30 28 28 27 26 26 22 18 21 29 43 46 48 49 50 49 45 42 43 43 46
14 12 14 14 14 17 20 23 24 26 27 27 25 27 27 25 25 25 24 22 19 21 37 48 41 45 49 52 50 45 44 44
12 9 14 15 10 12 16 20 21 22 22 27 30 29 27 27 24 23 24 21 21 23 17 16 38 49 49 50 52 47 44 46
11 13 12 13 11 14 15 22 17 20 22 24 27 28 27 26 27 23 21 21 18 25 24 22 14 29 38 34 47 55 44 44
Wind_Direction
321 323 327 327 7 213 198 200 200 200 199 197 195 201 206 211 212 213 209 208 209 212 213 211 208 203 199 200 202 203 213 200
306 313 321 331 355 229 205 199 203 195 192 187 187 197 202 204 209 213 211 210 209 211 215 213 212 208 203 202 204 209 205 203
12 20 13 5 354 352 257 222 214 203 200 196 194 203 201 204 204 208 213 212 210 211 215 213 213 211 211 210 207 201 201 204
1 14 8 8 12 6 354 339 239 212 205 195 200 205 209 203 201 204 210 212 212 209 214 214 213 213 215 217 209 199 199 203
355 5 6 3 0 355 358 354 347 220 212 207 196 196 195 202 202 206 207 211 213 211 214 214 213 215 215 215 207 205 203 205
354 352 1 0 357 351 346 353 343 340 220 210 213 208 206 206 206 205 203 208 212 213 213 213 213 215 218 216 209 208 209 207
356 349 352 5 357 352 347 347 342 346 345 232 218 222 211 203 208 207 203 204 207 211 213 212 215 214 217 218 216 212 212 211
357 354 353 352 357 351 350 355 347 350 349 336 240 226 226 214 206 206 203 204 205 207 211 212 211 216 215 219 216 216 215 215
356 354 354 348 351 351 354 358 352 347 344 339 314 242 225 228 219 213 211 208 205 208 210 212 212 213 214 217 217 217 215 219
357 354 356 346 349 355 357 357 353 344 340 340 334 314 241 226 228 222 217 216 214 209 207 208 212 211 213 214 214 218 214 218
359 1 354 354 353 356 3 0 355 344 337 336 331 322 286 235 232 230 224 221 218 212 209 208 211 211 213 213 216 217 215 218
7 354 348 350 356 360 1 2 356 351 341 337 337 336 289 255 245 247 241 227 220 215 208 207 209 213 213 211 214 217 216 219
356 352 356 357 356 3 1 359 358 354 344 342 345 357 319 294 279 257 267 253 236 226 212 207 208 211 212 213 215 217 216 216
324 332 337 349 338 347 359 356 355 354 351 349 349 348 351 340 323 273 245 277 264 234 225 210 207 210 212 214 217 217 218 219
295 290 310 334 336 334 344 353 355 352 351 350 348 350 343 357 345 323 277 263 276 244 234 220 213 209 214 216 217 220 220 224
308 303 302 325 340 353 350 347 350 347 346 347 346 349 349 355 357 347 321 289 269 259 245 230 222 215 211 214 217 221 221 224
308 311 325 316 325 340 352 358 345 348 337 337 343 350 352 353 3 360 341 335 325 277 250 235 229 222 222 214 214 216 220 225
305 325 327 345 311 336 353 348 344 353 340 335 342 353 347 348 2 8 352 342 345 338 323 323 240 226 224 220 220 216 219 224
301 312 341 354 339 333 342 360 344 348 348 341 342 349 343 349 351 5 356 344 1 343 341 343 337 256 250 244 230 230 224 225